Location: Arrodets-la-Barthe
(43.0306°N, 0.2829°E)
Time: 12:06:34
(UTC+00:00)

Cosmos 1844 Rocket - Pass Details

Date: 24 October 2021
Orbit: 826 x 843 km, 71.0° (Epoch: 07 December)

Event Time Altitude Azimuth Distance (km) Brightness Sun altitude
Rises 17:21:29 0° 346° (NNW) 3,374 5.9 -4.3°
Reaches altitude 10° 17:24:43 10° 4° (N) 2,436 5.0 -4.9°
Maximum altitude 17:28:33 19° 48° (NE) 1,897 4.1 -5.6°
Drops below altitude 10° 17:32:22 10° 92° (E) 2,429 4.5 -6.2°
Enters shadow 17:33:52 - 102° (ESE) 2,834 4.9 -6.5°
